Simultaneous Nadir Overpasses (SNOs) Predictions

Prediction of SNOs between GOES-14 and AQUA Satellite Orbit:

Table of predicted SNOs for the next 14.0 days since TLE Epoch: 4/26/2019
Index Date Time (GOES-14) GOES-14 Lat,Lon AQUA Lat,Lon Distance(km) Time Diff (sec)
1 04/27/2019 20:18:09 -0.12,-104.39 0.57,-101.00 384.64 80
2 04/28/2019 08:39:25 0.11,-104.37 0.51,-106.16 204.17 80
3 04/30/2019 08:29:53 0.12,-104.37 -0.11,-103.20 132.45 80
4 04/30/2019 20:51:18 -0.11,-104.41 -0.93,-108.41 454.36 80
5 05/02/2019 08:17:41 0.12,-104.38 -0.73,-100.25 469.23 80
6 05/02/2019 20:39:06 -0.11,-104.41 -0.30,-105.45 117.94 80
7 05/04/2019 20:24:14 -0.11,-104.41 0.32,-102.49 218.35 80
8 05/05/2019 08:45:29 0.10,-104.37 0.81,-107.65 372.83 80
9 05/07/2019 08:33:17 0.10,-104.37 0.17,-104.69 36.62 80
10 05/09/2019 08:23:45 0.10,-104.36 -0.46,-101.73 299.19 80
11 05/09/2019 20:45:09 -0.09,-104.41 -0.64,-106.92 286.07 80




NCC Satellite Simultaneous Nadir Overpasses (SNOs) Prediction Service
